[[{"header":{"parameterUnit":"m.s-1","parameterCategory":1,"la1":30.2991,"la2":30.254,"lo1":-89.0895,"lo2":-89.0444,"dy":0.0017,"dx":0.0017,"nx":28,"ny":28,"refTime":"2023-03-29T21:00:00:Z","depth":0,"parameterNumber":2,"parameterNumberName":"U-component_of_WINDS"},"data":[0,0,0,0,0,0,0,0,0,0,0,0,0,0,0,0,0,0,0,0,0,0,0,0,0,0,0,0,0,0,0,0,0,0,0,0,0,0,0,0,0,0,0,0,0,0,0,0,0,0,0,0,0,0,0,0,0,0,-2.2489,-2.249,0,-2.2596,-2.2598,-2.2599,-2.2643,-2.2643,-2.2642,-2.2642,-2.2756,-2.2759,-2.2762,0,0,0,0,0,0,0,0,0,0,0,0,0,-2.2327,-2.233,-2.2489,-2.2491,-2.2492,-2.2596,-2.2598,-2.2599,-2.2643,-2.2643,-2.2642,-2.2642,-2.2755,-2.2758,-2.2762,0,0,0,0,0,0,0,0,0,0,0,0,0,-2.2412,-2.2331,-2.2489,-2.2526,-2.2531,-2.2596,-2.2598,-2.26,-2.2643,-2.2643,-2.2642,-2.2642,-2.2753,-2.2758,-2.2763,-2.28,0,0,-2.2778,-2.278,0,0,0,0,0,0,0,0,-2.2407,-2.2418,-2.2519,-2.2524,-2.2529,-2.2606,-2.2582,-2.2667,-2.2643,-2.26,-2.2642,-2.2642,-2.2706,-2.2715,-2.2736,-2.2806,-2.2811,-2.2778,-2.2781,-2.2783,-2.2785,0,0,0,0,0,0,0,-2.2402,-2.2414,-2.2532,-2.2521,-2.2527,-2.2539,-2.2551,-2.2599,-2.2654,-2.2604,-2.2607,-2.2619,-2.2709,-2.2731,-2.2739,-2.2812,-2.2778,-2.2782,-2.2785,-2.2787,-2.292,-2.2921,0,0,0,0,0,0,-2.2389,-2.2409,-2.2528,-2.2535,-2.2466,-2.2542,-2.2555,-2.2582,-2.2654,-2.2664,-2.262,-2.2621,-2.2723,-2.2733,-2.2743,-2.2793,-2.2783,-2.2788,-2.2791,-2.2919,-2.292,-2.2921,0,0,0,0,0,0,-2.2385,-2.2399,-2.2524,-2.2473,-2.249,-2.2545,-2.2574,-2.2584,-2.2606,-2.2665,-2.2676,-2.2632,-2.2723,-2.2736,-2.2786,-2.2797,-2.279,-2.2794,-2.2919,-2.292,-2.2921,-2.2891,0,0,0,0,0,0,-2.238,-2.2398,-2.2411,-2.2473,-2.2492,-2.2563,-2.2575,-2.2586,-2.2614,-2.2617,-2.268,-2.269,-2.2724,-2.2778,-2.2791,-2.2804,-2.2798,-2.2918,-2.2919,-2.292,-2.2891,-2.2891,-2.2891,0,0,0,0,0,-2.2374,-2.2399,-2.2411,-2.2426,-2.251,-2.2564,-2.2575,-2.2613,-2.2615,-2.263,-2.2668,-2.2688,-2.2794,-2.2783,-2.2797,-2.2812,-2.2917,-2.2919,-2.292,-2.2892,-2.2891,-2.2891,0,0,0,0,0,0,-2.2338,-2.2408,-2.2422,-2.2467,-2.2509,-2.2571,-2.2591,-2.2611,-2.2654,-2.2655,-2.2701,-2.2715,-2.2761,-2.2792,-2.2778,-2.2853,-2.2858,-2.2862,-2.2831,-2.2831,-2.2831,-2.2822,-2.2802,0,0,0,0,0,-2.2335,-2.2372,-2.2431,-2.2465,-2.2485,-2.2534,-2.2559,-2.2585,-2.263,-2.2649,-2.2691,-2.2735,-2.2779,-2.2807,-2.285,-2.2897,-2.2912,-2.2914,-2.2913,-2.2913,-2.2916,-2.2944,-2.2946,-2.2925,-2.2925,-2.2925,0,0,-2.233,-2.2372,-2.2393,-2.2459,-2.2494,-2.2533,-2.2549,-2.2589,-2.2618,-2.2655,-2.2704,-2.2737,-2.279,-2.2838,-2.2862,-2.2866,-2.2925,-2.2915,-2.2914,-2.2917,-2.2946,-2.2947,-2.2949,-2.2926,-2.2926,-2.2926,0,0,-2.234,-2.2375,-2.2407,-2.2443,-2.2496,-2.2529,-2.2536,-2.2596,-2.2618,-2.2668,-2.2697,-2.2734,-2.2808,-2.2845,-2.2873,-2.2899,-2.2919,-2.2912,-2.291,-2.2937,-2.2938,-2.294,-2.2949,-2.2952,-2.2915,-2.2915,-2.2915,0,-2.2326,-2.2383,-2.2422,-2.246,-2.2489,-2.2524,-2.2558,-2.2591,-2.2656,-2.2676,-2.2679,-2.2774,-2.2812,-2.287,-2.2876,-2.2898,-2.291,-2.2905,-2.2934,-2.2937,-2.2939,-2.2949,-2.2952,-2.2914,-2.2914,-2.2914,-2.2914,0,-2.2365,-2.2405,-2.2425,-2.2486,-2.2517,-2.2553,-2.2599,-2.2627,-2.265,-2.2682,-2.2734,-2.2781,-2.2835,-2.2851,-2.2875,-2.2913,-2.2914,-2.2925,-2.293,-2.2939,-2.2949,-2.2953,-2.2912,-2.2912,-2.2913,-2.2913,0,0,-2.2354,-2.2436,-2.2443,-2.2471,-2.2533,-2.2565,-2.2604,-2.2656,-2.2679,-2.2723,-2.2758,-2.282,-2.2831,-2.2864,-2.2892,-2.2915,-2.2934,-2.2924,-2.2926,-2.2924,-2.298,-2.2971,-2.2974,-2.2948,-2.2949,-2.2949,-2.2976,0,-2.2372,-2.244,-2.2477,-2.2531,-2.2569,-2.2603,-2.2637,-2.268,-2.2712,-2.275,-2.2787,-2.283,-2.2841,-2.2861,-2.2886,-2.2926,-2.2945,-2.2925,-2.2981,-2.2983,-2.2966,-2.298,-2.297,-2.2992,-2.298,-2.2981,-2.2981,0,-2.2402,-2.2444,-2.2501,-2.256,-2.2577,-2.2606,-2.2658,-2.2693,-2.2743,-2.2765,-2.2802,-2.283,-2.2874,-2.2876,-2.2938,-2.2923,-2.2949,-2.2973,-2.2974,-2.2981,-2.2982,-2.2986,-2.3,-2.3004,-2.2988,-2.2987,-2.2987,0,-2.2388,-2.246,-2.2504,-2.2527,-2.2596,-2.2616,-2.2647,-2.2696,-2.2725,-2.2771,-2.279,-2.2841,-2.2868,-2.2908,-2.2949,-2.2947,-2.3008,-2.3013,-2.3028,-2.3027,-2.3039,-2.3038,-2.3057,-2.3056,-2.3056,-2.3056,-2.3056,0,-2.2404,-2.2438,-2.2499,-2.2525,-2.2565,-2.2608,-2.2646,-2.2679,-2.2723,-2.2759,-2.2792,-2.2825,-2.2878,-2.2918,-2.2951,-2.2998,-2.3011,-2.3031,-2.3039,-2.3027,-2.3025,-2.3045,-2.3044,-2.3057,-2.3057,-2.3056,-2.3056,0,-2.2395,-2.2437,-2.2487,-2.2548,-2.2565,-2.2591,-2.2645,-2.2673,-2.2708,-2.2752,-2.2765,-2.2819,-2.2868,-2.2914,-2.2979,-2.3002,-2.3049,-2.306,-2.3032,-2.3036,-2.3049,-2.3047,-2.3081,-2.3088,-2.3082,-2.3082,-2.3082,0,-2.2403,-2.2429,-2.2493,-2.2519,-2.2548,-2.2588,-2.2618,-2.2662,-2.2692,-2.2752,-2.2773,-2.2824,-2.2868,-2.2945,-2.2991,-2.3042,-2.3054,-2.3063,-2.3062,-2.305,-2.3055,-2.3053,-2.3056,-2.3062,-2.3062,-2.3062,-2.3062,0,-2.2412,-2.2431,-2.2472,-2.252,-2.2555,-2.2595,-2.2637,-2.2657,-2.2709,-2.2741,-2.2791,-2.2824,-2.2891,-2.2942,-2.2998,-2.3032,-2.3056,-2.3062,-2.3068,-2.3056,-2.3039,-2.3048,-2.303,-2.306,-2.3061,-2.3061,-2.3061,-2.3061,-2.2412,-2.2437,-2.2486,-2.2531,-2.2567,-2.2605,-2.2635,-2.2673,-2.2715,-2.2771,-2.2796,-2.2846,-2.2898,-2.2975,-2.3008,-2.305,-2.3055,-2.3064,-2.3066,-2.3068,-2.3066,-2.3032,-2.306,-2.3061,-2.3061,-2.3061,-2.3061,0,-2.2423,-2.2456,-2.2496,-2.2553,-2.2589,-2.2608,-2.2655,-2.2684,-2.2728,-2.2773,-2.2814,-2.2872,-2.2922,-2.2973,-2.3026,-2.305,-2.3062,-2.3062,-2.3061,-2.3068,-2.3058,-2.3047,-2.3051,-2.3051,-2.3051,-2.3051,-2.3051,-2.3051,-2.2432,-2.2477,-2.2502,-2.2565,-2.2599,-2.2648,-2.2673,-2.271,-2.2746,-2.2808,-2.2849,-2.2882,-2.293,-2.2987,-2.3034,-2.3048,-2.3066,-2.3063,-2.308,-2.3069,-2.3069,-2.3069,-2.3059,-2.3066,-2.3066,-2.3087,-2.3087,-2.3087]},{"header":{"parameterUnit":"m.s-1","parameterCategory":1,"la1":30.2991,"la2":30.254,"lo1":-89.0895,"lo2":-89.0444,"dy":0.0017,"dx":0.0017,"nx":28,"ny":28,"refTime":"2023-03-29T21:00:00:Z","depth":0,"parameterNumber":3,"parameterNumberName":"V-component_of_WINDS"},"data":[0,0,0,0,0,0,0,0,0,0,0,0,0,0,0,0,0,0,0,0,0,0,0,0,0,0,0,0,0,0,0,0,0,0,0,0,0,0,0,0,0,0,0,0,0,0,0,0,0,0,0,0,0,0,0,0,0,0,4.6285,4.6285,0,4.6293,4.6293,4.6293,4.6306,4.6306,4.6307,4.6307,4.6313,4.6313,4.6313,0,0,0,0,0,0,0,0,0,0,0,0,0,4.628,4.628,4.6285,4.6285,4.6285,4.6293,4.6293,4.6293,4.6306,4.6306,4.6307,4.6307,4.6313,4.6313,4.6313,0,0,0,0,0,0,0,0,0,0,0,0,0,4.6285,4.628,4.6285,4.6293,4.6293,4.6293,4.6293,4.6293,4.6306,4.6306,4.6307,4.6307,4.6313,4.6313,4.6313,4.6306,0,0,4.6313,4.6313,0,0,0,0,0,0,0,0,4.6284,4.6285,4.6292,4.6292,4.6293,4.6299,4.6294,4.6297,4.6306,4.6301,4.6307,4.6307,4.6308,4.6309,4.6309,4.6306,4.6306,4.6313,4.6313,4.6313,4.6313,0,0,0,0,0,0,0,4.6284,4.6285,4.6288,4.6292,4.6293,4.6295,4.6296,4.6295,4.6303,4.6302,4.6303,4.6303,4.6309,4.6309,4.631,4.6306,4.6313,4.6313,4.6313,4.6313,4.6299,4.6299,0,0,0,0,0,0,4.6283,4.6284,4.6288,4.6289,4.629,4.6295,4.6296,4.6297,4.6303,4.6304,4.6303,4.6304,4.6309,4.631,4.631,4.6302,4.6313,4.6313,4.6313,4.6299,4.6299,4.6298,0,0,0,0,0,0,4.6283,4.6283,4.6288,4.6287,4.6288,4.6295,4.6295,4.6297,4.6297,4.6304,4.6305,4.6302,4.631,4.631,4.6307,4.6303,4.6313,4.6313,4.63,4.6299,4.6299,4.6287,0,0,0,0,0,0,4.6283,4.6283,4.628,4.6287,4.6288,4.6285,4.6295,4.6297,4.6297,4.6299,4.6303,4.6305,4.631,4.6307,4.6307,4.6303,4.6313,4.63,4.6299,4.6299,4.6288,4.6286,4.6285,0,0,0,0,0,4.6282,4.6276,4.628,4.628,4.6284,4.6285,4.6285,4.6292,4.6297,4.6294,4.6299,4.6304,4.6303,4.6307,4.6307,4.6302,4.63,4.63,4.6299,4.6288,4.6286,4.6285,0,0,0,0,0,0,4.6268,4.6277,4.6282,4.6277,4.628,4.6287,4.6284,4.6289,4.6291,4.6292,4.6299,4.63,4.6297,4.6299,4.6303,4.6296,4.6303,4.6302,4.6295,4.6293,4.6291,4.6291,4.6313,0,0,0,0,0,4.6265,4.6265,4.6272,4.6268,4.6269,4.6276,4.6276,4.6281,4.6285,4.6286,4.629,4.6293,4.6293,4.6293,4.6293,4.6288,4.629,4.6285,4.6284,4.6282,4.6282,4.628,4.6278,4.6296,4.6296,4.6296,0,0,4.6257,4.6262,4.6261,4.6265,4.6268,4.6268,4.6277,4.6276,4.6276,4.6285,4.6284,4.6287,4.629,4.6286,4.6285,4.6288,4.6277,4.6281,4.628,4.628,4.6279,4.6277,4.6276,4.6295,4.6296,4.6296,0,0,4.6244,4.6247,4.6245,4.6248,4.6252,4.6257,4.6256,4.6262,4.6265,4.6263,4.6271,4.6271,4.6271,4.6274,4.6275,4.6264,4.6269,4.6263,4.6256,4.6254,4.6253,4.6251,4.6248,4.6247,4.6263,4.6263,4.6263,0,4.6234,4.6234,4.6242,4.6241,4.6243,4.6252,4.625,4.6252,4.6256,4.6257,4.6261,4.6262,4.6265,4.6263,4.626,4.626,4.626,4.6263,4.6252,4.6251,4.625,4.6247,4.6246,4.6262,4.6262,4.6262,4.6262,0,4.6223,4.6223,4.622,4.6225,4.6226,4.6224,4.6232,4.6232,4.6237,4.6241,4.624,4.6244,4.6246,4.6245,4.625,4.6244,4.6246,4.6251,4.6258,4.6248,4.6245,4.6244,4.6261,4.6261,4.6261,4.6262,0,0,4.6201,4.6211,4.621,4.6212,4.6219,4.6219,4.6217,4.622,4.6221,4.6223,4.6223,4.6223,4.6228,4.623,4.6234,4.6233,4.6225,4.6238,4.6238,4.6236,4.622,4.6216,4.6215,4.6229,4.6228,4.6228,4.622,0,4.6189,4.6188,4.6196,4.6192,4.6193,4.6202,4.6201,4.6205,4.6209,4.621,4.6215,4.6215,4.6221,4.6223,4.6221,4.6226,4.6222,4.6227,4.6229,4.6228,4.6228,4.6214,4.621,4.6202,4.6219,4.6218,4.6218,0,4.6176,4.6179,4.6176,4.6184,4.6184,4.6183,4.6187,4.6188,4.6192,4.6195,4.6197,4.6203,4.6203,4.6209,4.6209,4.6212,4.6213,4.6216,4.6215,4.6216,4.6223,4.6215,4.6199,4.6198,4.6217,4.6217,4.6217,0,4.6161,4.6165,4.6164,4.6166,4.6174,4.6173,4.6177,4.6182,4.6183,4.6186,4.6187,4.619,4.6191,4.6193,4.62,4.6204,4.6199,4.6205,4.6202,4.6202,4.6201,4.6201,4.6186,4.62,4.62,4.6201,4.6201,0,4.6148,4.6147,4.6158,4.6157,4.6156,4.6164,4.6162,4.6166,4.6171,4.6171,4.6179,4.6179,4.6188,4.6189,4.6194,4.6193,4.6194,4.6197,4.6198,4.6196,4.6196,4.6198,4.6199,4.62,4.62,4.62,4.62,0,4.6132,4.6139,4.6139,4.6148,4.615,4.6148,4.6155,4.6155,4.616,4.6161,4.6161,4.6169,4.6171,4.6178,4.6181,4.6184,4.6183,4.6185,4.6181,4.6182,4.6179,4.618,4.6165,4.6164,4.6178,4.6178,4.6178,0,4.6124,4.6123,4.6131,4.6133,4.6136,4.6138,4.614,4.6148,4.6149,4.6155,4.6154,4.6157,4.616,4.6162,4.6168,4.6171,4.6174,4.6169,4.6174,4.6173,4.6175,4.6175,4.6176,4.6168,4.6167,4.6167,4.6167,0,4.6109,4.6113,4.6115,4.612,4.6122,4.6125,4.6129,4.613,4.6139,4.614,4.6143,4.6145,4.6149,4.6152,4.6155,4.6159,4.6165,4.6165,4.6165,4.6163,4.6162,4.6163,4.6179,4.6166,4.6166,4.6166,4.6166,4.6166,4.6097,4.6097,4.6103,4.6106,4.611,4.6114,4.6115,4.612,4.6122,4.6127,4.6131,4.6133,4.6138,4.6144,4.6147,4.6149,4.6152,4.6151,4.6151,4.6151,4.6151,4.6161,4.615,4.615,4.615,4.615,4.615,0,4.6083,4.6088,4.609,4.6096,4.6098,4.6104,4.6109,4.611,4.6112,4.6117,4.612,4.6123,4.6126,4.6132,4.6136,4.6136,4.6139,4.6137,4.6137,4.6138,4.6147,4.6148,4.6135,4.6135,4.6135,4.6135,4.6135,4.6135,4.6076,4.6077,4.6081,4.6084,4.6089,4.6092,4.6094,4.6097,4.6101,4.6105,4.6108,4.6112,4.6117,4.6121,4.6124,4.6126,4.6127,4.6125,4.6127,4.6136,4.6137,4.6139,4.6139,4.6125,4.6125,4.6118,4.6118,4.6118]}]]